Time,TemperatureF,DewpointF,PressureIn,WindDirection,WindDirectionDegrees,WindSpeedMPH,WindSpeedGustMPH,Humidity,HourlyPrecipIn,Conditions,Clouds,dailyrainin,SoftwareType,DateUTC
2013-08-03 00:04:00,80.4,77.9,29.88,North,0,1.1,0.0,92,0.00,RA,,0.00,WeatherDisplay:10.37,2013-08-03 05:04:00,
2013-08-03 00:09:00,80.4,77.9,29.88,North,0,0.0,0.0,92,0.00,CLR,,0.00,WeatherDisplay:10.37,2013-08-03 05:09:00,
2013-08-03 00:14:00,80.2,77.7,29.88,North,0,0.0,0.0,92,0.00,CLR,,0.00,WeatherDisplay:10.37,2013-08-03 05:14:00,
2013-08-03 00:19:00,80.4,77.9,29.88,North,0,0.0,0.0,92,0.00,CLR,,0.00,WeatherDisplay:10.37,2013-08-03 05:19:00,
2013-08-03 00:24:00,80.2,77.7,29.88,North,0,1.1,0.0,92,0.00,CLR,,0.00,WeatherDisplay:10.37,2013-08-03 05:24:00,
2013-08-03 00:28:00,40.6,39.6,30.10,NW,315,0.7,0.7,96,0.00,,,0.00,Cumulus v1.9.2,2013-08-03 05:28:00,
2013-08-03 00:29:00,80.2,77.7,29.88,North,0,0.0,0.0,92,0.00,CLR,,0.00,WeatherDisplay:10.37,2013-08-03 05:29:00,
2013-08-03 00:34:00,80.1,77.5,29.88,North,0,0.0,0.0,92,0.00,CLR,,0.00,WeatherDisplay:10.37,2013-08-03 05:34:00,
2013-08-03 00:39:00,80.1,77.5,29.88,North,0,0.0,0.0,92,0.00,CLR,,0.00,WeatherDisplay:10.37,2013-08-03 05:39:00,
2013-08-03 00:44:00,79.9,77.3,29.88,North,0,0.0,0.0,92,0.00,CLR,,0.00,WeatherDisplay:10.37,2013-08-03 05:44:00,
2013-08-03 00:49:00,79.9,77.3,29.88,North,0,0.0,0.0,92,0.00,CLR,,0.00,WeatherDisplay:10.37,2013-08-03 05:49:00,
2013-08-03 00:54:00,79.7,77.5,29.88,North,0,0.0,0.0,93,0.00,CLR,,0.00,WeatherDisplay:10.37,2013-08-03 05:54:00,
2013-08-03 00:58:00,40.5,39.4,30.10,NE,45,0.0,0.0,96,0.00,,,0.00,Cumulus v1.9.2,2013-08-03 05:58:00,
2013-08-03 00:59:00,79.7,77.5,29.88,North,0,0.0,0.0,93,0.00,CLR,,0.00,WeatherDisplay:10.37,2013-08-03 05:59:00,
2013-08-03 01:04:00,79.7,77.5,29.88,North,0,0.0,0.0,93,0.00,CLR,,0.00,WeatherDisplay:10.37,2013-08-03 06:04:00,
2013-08-03 01:09:00,79.5,77.3,29.88,North,0,0.0,0.0,93,0.00,CLR,,0.00,WeatherDisplay:10.37,2013-08-03 06:09:00,
2013-08-03 01:14:00,79.5,77.6,29.88,North,0,0.0,0.0,94,0.00,CLR,,0.00,WeatherDisplay:10.37,2013-08-03 06:14:00,
2013-08-03 01:19:00,79.3,77.5,29.87,North,0,1.1,0.0,94,0.00,CLR,,0.00,WeatherDisplay:10.37,2013-08-03 06:19:00,
2013-08-03 01:24:00,79.3,77.5,29.88,North,0,1.1,0.0,94,0.00,CLR,,0.00,WeatherDisplay:10.37,2013-08-03 06:24:00,
2013-08-03 01:28:00,40.1,39.1,30.11,NE,45,0.0,0.0,96,0.00,,,0.00,Cumulus v1.9.2,2013-08-03 06:28:00,
2013-08-03 01:30:00,79.3,77.5,29.88,North,0,0.0,0.0,94,0.00,CLR,,0.00,WeatherDisplay:10.37,2013-08-03 06:30:00,
2013-08-03 01:35:00,79.3,77.5,29.88,North,0,1.1,0.0,94,0.00,CLR,,0.00,WeatherDisplay:10.37,2013-08-03 06:35:00,
2013-08-03 01:40:00,79.3,77.5,29.88,North,0,0.0,0.0,94,0.00,CLR,,0.00,WeatherDisplay:10.37,2013-08-03 06:40:00,
2013-08-03 01:45:00,79.2,77.3,29.88,North,0,0.0,0.0,94,0.00,CLR,,0.00,WeatherDisplay:10.37,2013-08-03 06:45:00,
2013-08-03 01:50:00,79.2,77.3,29.88,North,0,0.0,0.0,94,0.00,CLR,,0.00,WeatherDisplay:10.37,2013-08-03 06:50:00,
2013-08-03 01:55:00,79.0,77.4,29.88,North,0,1.1,0.0,95,0.00,CLR,,0.00,WeatherDisplay:10.37,2013-08-03 06:55:00,
2013-08-03 01:58:00,39.9,38.9,30.11,NE,45,0.0,0.0,96,0.00,,,0.00,Cumulus v1.9.2,2013-08-03 06:58:00,
2013-08-03 02:00:00,79.0,77.4,29.88,North,0,0.0,0.0,95,0.00,CLR,,0.00,WeatherDisplay:10.37,2013-08-03 07:00:00,
2013-08-03 02:05:00,79.0,77.4,29.88,North,0,0.0,0.0,95,0.00,CLR,,0.00,WeatherDisplay:10.37,2013-08-03 07:05:00,
2013-08-03 02:10:00,78.8,77.2,29.88,North,0,1.1,0.0,95,0.00,CLR,,0.00,WeatherDisplay:10.37,2013-08-03 07:10:00,
2013-08-03 02:15:00,78.8,77.2,29.88,North,0,0.0,0.0,95,0.00,CLR,,0.00,WeatherDisplay:10.37,2013-08-03 07:15:00,
2013-08-03 02:20:00,78.6,77.4,29.88,North,0,0.0,0.0,96,0.00,CLR,,0.00,WeatherDisplay:10.37,2013-08-03 07:20:00,
2013-08-03 02:25:00,78.4,77.2,29.88,North,0,0.0,0.0,96,0.00,CLR,,0.00,WeatherDisplay:10.37,2013-08-03 07:25:00,
2013-08-03 02:28:00,39.6,38.8,30.11,NE,45,0.0,0.0,97,0.00,,,0.00,Cumulus v1.9.2,2013-08-03 07:28:00,
2013-08-03 02:30:00,78.4,77.2,29.88,North,0,0.0,0.0,96,0.00,CLR,,0.00,WeatherDisplay:10.37,2013-08-03 07:30:00,
2013-08-03 02:35:00,78.3,77.0,29.88,North,0,0.0,0.0,96,0.00,CLR,,0.00,WeatherDisplay:10.37,2013-08-03 07:35:00,
2013-08-03 02:40:00,78.3,77.3,29.88,North,0,0.0,0.0,97,0.00,CLR,,0.00,WeatherDisplay:10.37,2013-08-03 07:40:00,
2013-08-03 02:45:00,78.1,77.2,29.88,North,0,0.0,0.0,97,0.00,CLR,,0.00,WeatherDisplay:10.37,2013-08-03 07:45:00,
2013-08-03 02:50:00,78.1,77.5,29.88,North,0,0.0,0.0,98,0.00,CLR,,0.00,WeatherDisplay:10.37,2013-08-03 07:50:00,
2013-08-03 02:55:00,78.1,77.5,29.88,North,0,0.0,0.0,98,0.00,CLR,,0.00,WeatherDisplay:10.37,2013-08-03 07:55:00,
2013-08-03 02:58:00,39.7,39.0,30.12,NE,45,0.0,0.0,97,0.00,,,0.00,Cumulus v1.9.2,2013-08-03 07:58:00,
2013-08-03 03:00:00,78.1,77.5,29.88,North,0,0.0,0.0,98,0.00,CLR,,0.00,WeatherDisplay:10.37,2013-08-03 08:00:00,
2013-08-03 03:05:00,78.1,77.5,29.87,North,0,0.0,0.0,98,0.00,CLR,,0.00,WeatherDisplay:10.37,2013-08-03 08:05:00,
2013-08-03 03:10:00,77.7,77.1,29.87,North,0,0.0,0.0,98,0.00,CLR,,0.00,WeatherDisplay:10.37,2013-08-03 08:10:00,
2013-08-03 03:15:00,77.5,76.9,29.87,North,0,0.0,0.0,98,0.00,CLR,,0.00,WeatherDisplay:10.37,2013-08-03 08:15:00,
2013-08-03 03:20:00,77.5,77.2,29.88,North,0,0.0,0.0,99,0.00,CLR,,0.00,WeatherDisplay:10.37,2013-08-03 08:20:00,
2013-08-03 03:25:00,77.5,77.2,29.88,North,0,0.0,0.0,99,0.00,CLR,,0.00,WeatherDisplay:10.37,2013-08-03 08:25:00,
2013-08-03 03:28:00,40.6,39.9,30.13,NE,45,0.0,0.0,97,0.00,,,0.00,Cumulus v1.9.2,2013-08-03 08:28:00,
2013-08-03 03:30:00,77.5,77.2,29.88,North,0,0.0,0.0,99,0.00,CLR,,0.00,WeatherDisplay:10.37,2013-08-03 08:30:00,
2013-08-03 03:35:00,77.4,77.1,29.88,North,0,1.1,0.0,99,0.00,CLR,,0.00,WeatherDisplay:10.37,2013-08-03 08:35:00,
2013-08-03 03:40:00,77.4,77.1,29.88,North,0,0.0,0.0,99,0.00,CLR,,0.00,WeatherDisplay:10.37,2013-08-03 08:40:00,
2013-08-03 03:45:00,77.4,77.1,29.88,North,0,1.1,0.0,99,0.00,CLR,,0.00,WeatherDisplay:10.37,2013-08-03 08:45:00,
2013-08-03 03:50:00,77.4,77.1,29.88,North,0,0.0,0.0,99,0.00,CLR,,0.00,WeatherDisplay:10.37,2013-08-03 08:50:00,
2013-08-03 03:55:00,77.4,77.1,29.88,North,0,1.1,0.0,99,0.00,CLR,,0.00,WeatherDisplay:10.37,2013-08-03 08:55:00,
2013-08-03 03:58:00,41.4,40.6,30.14,NE,45,0.0,0.0,97,0.00,,,0.00,Cumulus v1.9.2,2013-08-03 08:58:00,
2013-08-03 04:00:00,77.4,77.1,29.88,North,0,0.0,0.0,99,0.00,CLR,,0.00,WeatherDisplay:10.37,2013-08-03 09:00:00,
2013-08-03 04:05:00,77.4,77.1,29.88,North,0,0.0,0.0,99,0.00,CLR,,0.00,WeatherDisplay:10.37,2013-08-03 09:05:00,
2013-08-03 04:10:00,77.2,76.9,29.88,North,0,0.0,0.0,99,0.00,CLR,,0.00,WeatherDisplay:10.37,2013-08-03 09:10:00,
2013-08-03 04:15:00,77.2,76.9,29.88,North,0,0.0,0.0,99,0.00,CLR,,0.00,WeatherDisplay:10.37,2013-08-03 09:15:00,
2013-08-03 04:20:00,77.0,76.7,29.88,North,0,0.0,0.0,99,0.00,CLR,,0.00,WeatherDisplay:10.37,2013-08-03 09:20:00,
2013-08-03 04:25:00,77.0,76.7,29.88,North,0,0.0,0.0,99,0.00,CLR,,0.00,WeatherDisplay:10.37,2013-08-03 09:25:00,
2013-08-03 04:28:00,42.3,41.5,30.15,SW,225,0.0,0.0,97,0.00,,,0.00,Cumulus v1.9.2,2013-08-03 09:28:00,
2013-08-03 04:30:00,77.0,76.7,29.89,North,0,0.0,0.0,99,0.00,CLR,,0.00,WeatherDisplay:10.37,2013-08-03 09:30:00,
2013-08-03 04:35:00,76.8,76.5,29.88,North,0,0.0,0.0,99,0.00,CLR,,0.00,WeatherDisplay:10.37,2013-08-03 09:35:00,
2013-08-03 04:41:00,76.8,76.5,29.88,North,0,0.0,0.0,99,0.00,CLR,,0.00,WeatherDisplay:10.37,2013-08-03 09:41:00,
2013-08-03 04:46:00,76.8,76.5,29.88,North,0,0.0,0.0,99,0.00,CLR,,0.00,WeatherDisplay:10.37,2013-08-03 09:46:00,
2013-08-03 04:51:00,76.8,76.5,29.88,North,0,0.0,0.0,99,0.00,CLR,,0.00,WeatherDisplay:10.37,2013-08-03 09:51:00,
2013-08-03 04:56:00,76.6,76.3,29.89,North,0,0.0,0.0,99,0.00,CLR,,0.00,WeatherDisplay:10.37,2013-08-03 09:56:00,
2013-08-03 04:58:00,45.5,45.0,30.15,SE,135,0.0,0.0,98,0.00,,,0.00,Cumulus v1.9.2,2013-08-03 09:58:00,
2013-08-03 05:01:00,76.6,76.3,29.88,North,0,0.0,0.0,99,0.00,CLR,,0.00,WeatherDisplay:10.37,2013-08-03 10:01:00,
2013-08-03 05:06:00,76.6,76.3,29.88,North,0,0.0,0.0,99,0.00,CLR,,0.00,WeatherDisplay:10.37,2013-08-03 10:06:00,
2013-08-03 05:07:00,76.5,76.2,29.88,North,0,0.0,0.0,99,0.00,CLR,,0.00,WeatherDisplay:10.37,2013-08-03 10:07:00,
2013-08-03 05:12:00,76.5,76.2,29.88,North,0,0.0,0.0,99,0.00,CLR,,0.00,WeatherDisplay:10.37,2013-08-03 10:12:00,
2013-08-03 05:17:00,76.3,76.0,29.88,North,0,0.0,0.0,99,0.00,CLR,,0.00,WeatherDisplay:10.37,2013-08-03 10:17:00,
2013-08-03 05:22:00,76.3,76.0,29.88,North,0,0.0,0.0,99,0.00,CLR,,0.00,WeatherDisplay:10.37,2013-08-03 10:22:00,
2013-08-03 05:27:00,76.3,76.0,29.88,North,0,0.0,0.0,99,0.00,CLR,,0.00,WeatherDisplay:10.37,2013-08-03 10:27:00,
2013-08-03 05:28:00,50.2,49.6,30.15,SW,225,0.7,0.7,98,0.00,,,0.00,Cumulus v1.9.2,2013-08-03 10:28:00,
2013-08-03 05:32:00,76.1,75.8,29.88,North,0,0.0,0.0,99,0.00,CLR,,0.00,WeatherDisplay:10.37,2013-08-03 10:32:00,
2013-08-03 05:37:00,76.1,75.8,29.88,North,0,0.0,0.0,99,0.00,CLR,,0.00,WeatherDisplay:10.37,2013-08-03 10:37:00,
2013-08-03 05:42:00,76.1,75.8,29.88,North,0,0.0,0.0,99,0.00,CLR,,0.00,WeatherDisplay:10.37,2013-08-03 10:42:00,
2013-08-03 05:47:00,76.1,75.8,29.89,North,0,0.0,0.0,99,0.00,CLR,,0.00,WeatherDisplay:10.37,2013-08-03 10:47:00,
2013-08-03 05:52:00,76.1,75.8,29.89,North,0,0.0,0.0,99,0.00,CLR,,0.00,WeatherDisplay:10.37,2013-08-03 10:52:00,
2013-08-03 05:57:00,75.9,75.6,29.89,North,0,0.0,0.0,99,0.00,CLR,,0.00,WeatherDisplay:10.37,2013-08-03 10:57:00,
2013-08-03 05:58:00,55.9,52.4,30.16,SW,225,3.1,3.1,88,0.00,,,0.00,Cumulus v1.9.2,2013-08-03 10:58:00,
2013-08-03 06:02:00,75.9,75.6,29.89,North,0,0.0,0.0,99,0.00,CLR,,0.00,WeatherDisplay:10.37,2013-08-03 11:02:00,
2013-08-03 06:07:00,75.9,75.6,29.89,North,0,0.0,0.0,99,0.00,CLR,,0.00,WeatherDisplay:10.37,2013-08-03 11:07:00,
2013-08-03 06:12:00,75.9,75.6,29.89,North,0,0.0,0.0,99,0.00,CLR,,0.00,WeatherDisplay:10.37,2013-08-03 11:12:00,
2013-08-03 06:17:00,75.9,75.6,29.90,North,0,0.0,0.0,99,0.00,CLR,,0.00,WeatherDisplay:10.37,2013-08-03 11:17:00,
2013-08-03 06:22:00,75.7,75.4,29.89,North,0,0.0,0.0,99,0.00,CLR,,0.00,WeatherDisplay:10.37,2013-08-03 11:22:00,
2013-08-03 06:27:00,75.7,75.4,29.90,North,0,0.0,0.0,99,0.00,CLR,,0.00,WeatherDisplay:10.37,2013-08-03 11:27:00,
2013-08-03 06:28:00,60.8,53.5,30.15,NE,45,1.6,1.6,77,0.00,,,0.00,Cumulus v1.9.2,2013-08-03 11:28:00,
2013-08-03 06:32:00,75.7,75.4,29.90,North,0,0.0,0.0,99,0.00,CLR,,0.00,WeatherDisplay:10.37,2013-08-03 11:32:00,
2013-08-03 06:37:00,75.6,75.3,29.90,North,0,0.0,0.0,99,0.00,CLR,,0.00,WeatherDisplay:10.37,2013-08-03 11:37:00,
2013-08-03 06:42:00,75.6,75.3,29.90,North,0,0.0,0.0,99,0.00,CLR,,0.00,WeatherDisplay:10.37,2013-08-03 11:42:00,
2013-08-03 06:48:00,75.6,75.3,29.90,North,0,0.0,0.0,99,0.00,CLR,,0.00,WeatherDisplay:10.37,2013-08-03 11:48:00,
2013-08-03 06:53:00,75.7,75.4,29.90,North,0,0.0,0.0,99,0.00,CLR,,0.00,WeatherDisplay:10.37,2013-08-03 11:53:00,
2013-08-03 06:58:00,75.7,75.4,29.90,North,0,0.0,0.0,99,0.00,CLR,,0.00,WeatherDisplay:10.37,2013-08-03 11:58:00,
2013-08-03 07:03:00,75.9,75.6,29.90,North,0,0.0,0.0,99,0.00,CLR,,0.00,WeatherDisplay:10.37,2013-08-03 12:03:00,
2013-08-03 07:08:00,75.9,75.6,29.90,North,0,0.0,0.0,99,0.00,CLR,,0.00,WeatherDisplay:10.37,2013-08-03 12:08:00,
2013-08-03 07:13:00,76.1,75.8,29.90,North,0,0.0,0.0,99,0.00,CLR,,0.00,WeatherDisplay:10.37,2013-08-03 12:13:00,
2013-08-03 07:18:00,76.1,75.8,29.91,North,0,0.0,0.0,99,0.00,CLR,,0.00,WeatherDisplay:10.37,2013-08-03 12:18:00,
2013-08-03 07:23:00,76.3,76.0,29.91,North,0,0.0,0.0,99,0.00,CLR,,0.00,WeatherDisplay:10.37,2013-08-03 12:23:00,
2013-08-03 07:28:00,76.5,76.2,29.91,North,0,0.0,0.0,99,0.00,CLR,,0.00,WeatherDisplay:10.37,2013-08-03 12:28:00,
2013-08-03 07:33:00,76.6,76.3,29.91,North,0,0.0,0.0,99,0.00,CLR,,0.00,WeatherDisplay:10.37,2013-08-03 12:33:00,
2013-08-03 07:38:00,76.6,76.3,29.91,North,0,0.0,0.0,99,0.00,CLR,,0.00,WeatherDisplay:10.37,2013-08-03 12:38:00,
2013-08-03 07:43:00,77.0,76.7,29.91,North,0,1.1,0.0,99,0.00,CLR,,0.00,WeatherDisplay:10.37,2013-08-03 12:43:00,
2013-08-03 07:48:00,77.0,76.7,29.91,North,0,1.1,0.0,99,0.00,CLR,,0.00,WeatherDisplay:10.37,2013-08-03 12:48:00,
2013-08-03 07:53:00,77.4,77.1,29.91,North,0,1.1,0.0,99,0.00,CLR,,0.00,WeatherDisplay:10.37,2013-08-03 12:53:00,
2013-08-03 07:58:00,77.5,77.2,29.91,NW,315,1.1,0.0,99,0.00,CLR,,0.00,WeatherDisplay:10.37,2013-08-03 12:58:00,
2013-08-03 08:03:00,77.7,77.4,29.91,West,270,2.3,0.0,99,0.00,CLR,,0.00,WeatherDisplay:10.37,2013-08-03 13:03:00,
2013-08-03 08:08:00,77.7,77.4,29.91,NE,45,1.1,0.0,99,0.00,CLR,,0.00,WeatherDisplay:10.37,2013-08-03 13:08:00,
2013-08-03 08:13:00,78.1,77.8,29.91,North,0,3.5,0.0,99,0.00,CLR,,0.00,WeatherDisplay:10.37,2013-08-03 13:13:00,
2013-08-03 08:18:00,78.3,78.0,29.92,West,270,1.1,0.0,99,0.00,CLR,,0.00,WeatherDisplay:10.37,2013-08-03 13:18:00,
2013-08-03 08:23:00,78.6,78.3,29.92,NE,45,1.1,0.0,99,0.00,CLR,,0.00,WeatherDisplay:10.37,2013-08-03 13:23:00,
2013-08-03 08:28:00,78.8,78.5,29.93,SW,225,1.1,0.0,99,0.00,CLR,,0.00,WeatherDisplay:10.37,2013-08-03 13:28:00,
2013-08-03 08:33:00,79.0,78.7,29.93,NE,45,2.3,2.3,99,0.00,CLR,,0.00,WeatherDisplay:10.37,2013-08-03 13:33:00,
2013-08-03 08:38:00,79.3,79.0,29.93,SE,135,1.1,0.0,99,0.00,CLR,,0.00,WeatherDisplay:10.37,2013-08-03 13:38:00,
2013-08-03 08:43:00,79.5,79.2,29.93,North,0,0.0,0.0,99,0.00,CLR,,0.00,WeatherDisplay:10.37,2013-08-03 13:43:00,
2013-08-03 08:48:00,79.9,79.6,29.93,SW,225,3.5,3.5,99,0.00,CLR,,0.00,WeatherDisplay:10.37,2013-08-03 13:48:00,
2013-08-03 08:53:00,80.1,79.8,29.93,East,90,1.1,0.0,99,0.00,CLR,,0.00,WeatherDisplay:10.37,2013-08-03 13:53:00,
2013-08-03 08:58:00,80.4,80.1,29.93,SW,225,3.5,3.5,99,0.00,CLR,,0.00,WeatherDisplay:10.37,2013-08-03 13:58:00,
2013-08-03 09:03:00,80.6,80.3,29.93,West,270,3.5,0.0,99,0.00,CLR,,0.00,WeatherDisplay:10.37,2013-08-03 14:03:00,
2013-08-03 09:08:00,81.0,80.7,29.93,West,270,3.5,3.5,99,0.00,CLR,,0.00,WeatherDisplay:10.37,2013-08-03 14:08:00,
2013-08-03 09:13:00,81.5,80.9,29.93,SW,225,3.5,0.0,98,0.00,CLR,,0.00,WeatherDisplay:10.37,2013-08-03 14:13:00,
2013-08-03 09:18:00,82.0,80.8,29.94,North,0,3.5,3.5,96,0.00,CLR,,0.00,WeatherDisplay:10.37,2013-08-03 14:18:00,
2013-08-03 09:23:00,82.4,80.8,29.94,NE,45,2.3,2.3,95,0.00,CLR,,0.00,WeatherDisplay:10.37,2013-08-03 14:23:00,
2013-08-03 09:28:00,82.6,80.3,29.94,NNW,338,4.6,4.6,93,0.00,CLR,,0.00,WeatherDisplay:10.37,2013-08-03 14:28:00,
2013-08-03 09:33:00,82.9,80.0,29.94,ENE,68,2.3,0.0,91,0.00,CLR,,0.00,WeatherDisplay:10.37,2013-08-03 14:33:00,
2013-08-03 09:38:00,83.3,79.7,29.94,North,0,4.6,4.6,89,0.00,CLR,,0.00,WeatherDisplay:10.37,2013-08-03 14:38:00,
2013-08-03 09:43:00,83.7,79.7,29.94,West,270,3.5,3.5,88,0.00,CLR,,0.00,WeatherDisplay:10.37,2013-08-03 14:43:00,
2013-08-03 09:48:00,84.0,79.7,29.95,NW,315,3.5,3.5,87,0.00,CLR,,0.00,WeatherDisplay:10.37,2013-08-03 14:48:00,
2013-08-03 09:53:00,84.6,79.9,29.95,West,270,3.5,0.0,86,0.00,CLR,,0.00,WeatherDisplay:10.37,2013-08-03 14:53:00,
2013-08-03 09:58:00,85.1,79.0,29.94,NE,45,3.5,3.5,82,0.00,CLR,,0.00,WeatherDisplay:10.37,2013-08-03 14:58:00,
2013-08-03 10:03:00,85.8,80.1,29.95,North,0,1.1,1.1,83,0.00,CLR,,0.00,WeatherDisplay:10.37,2013-08-03 15:03:00,
2013-08-03 10:08:00,86.2,78.9,29.95,SW,225,3.5,3.5,79,0.00,CLR,,0.00,WeatherDisplay:10.37,2013-08-03 15:08:00,
2013-08-03 10:13:00,86.9,79.2,29.95,NE,45,3.5,3.5,78,0.00,CLR,,0.00,WeatherDisplay:10.37,2013-08-03 15:13:00,
2013-08-03 10:18:00,87.4,79.7,29.95,SW,225,2.3,2.3,78,0.00,CLR,,0.00,WeatherDisplay:10.37,2013-08-03 15:18:00,
2013-08-03 10:23:00,88.3,79.8,29.95,South,180,3.5,0.0,76,0.00,CLR,,0.00,WeatherDisplay:10.37,2013-08-03 15:23:00,
2013-08-03 10:28:00,88.7,78.5,29.95,SW,225,2.3,0.0,72,0.00,CLR,,0.00,WeatherDisplay:10.37,2013-08-03 15:28:00,
2013-08-03 10:33:00,89.2,77.7,29.95,North,0,3.5,3.5,69,0.00,CLR,,0.00,WeatherDisplay:10.37,2013-08-03 15:33:00,
2013-08-03 10:38:00,89.6,78.5,29.95,North,0,3.5,0.0,70,0.00,CLR,,0.00,WeatherDisplay:10.37,2013-08-03 15:38:00,
2013-08-03 10:43:00,89.8,78.2,29.95,North,0,4.6,4.6,69,0.00,CLR,,0.00,WeatherDisplay:10.37,2013-08-03 15:43:00,
2013-08-03 10:48:00,90.0,77.1,29.95,South,180,3.8,3.8,66,0.00,CLR,,0.00,WeatherDisplay:10.37,2013-08-03 15:48:00,
2013-08-03 10:53:00,90.7,77.3,29.95,NW,315,3.5,3.5,65,0.00,CLR,,0.00,WeatherDisplay:10.37,2013-08-03 15:53:00,
2013-08-03 10:58:00,91.4,78.4,29.95,SW,225,3.5,3.5,66,0.00,CLR,,0.00,WeatherDisplay:10.37,2013-08-03 15:58:00,
2013-08-03 11:03:00,91.8,77.8,29.95,South,180,2.3,0.0,64,0.00,CLR,,0.00,WeatherDisplay:10.37,2013-08-03 16:03:00,
2013-08-03 11:08:00,92.1,77.2,29.95,NE,45,2.3,2.3,62,0.00,CLR,,0.00,WeatherDisplay:10.37,2013-08-03 16:08:00,
2013-08-03 11:13:00,92.5,76.6,29.95,NW,315,3.5,3.5,60,0.00,CLR,,0.00,WeatherDisplay:10.37,2013-08-03 16:13:00,
2013-08-03 11:18:00,92.5,76.6,29.95,North,0,3.5,3.5,60,0.00,CLR,,0.00,WeatherDisplay:10.37,2013-08-03 16:18:00,
2013-08-03 11:23:00,92.8,76.9,29.95,NW,315,1.1,1.1,60,0.00,CLR,,0.00,WeatherDisplay:10.37,2013-08-03 16:23:00,
2013-08-03 11:28:00,92.8,77.4,29.95,SE,135,3.5,0.0,61,0.00,CLR,,0.00,WeatherDisplay:10.37,2013-08-03 16:28:00,
2013-08-03 11:33:00,92.1,76.2,29.95,NW,315,3.5,3.5,60,0.00,CLR,,0.00,WeatherDisplay:10.37,2013-08-03 16:33:00,
2013-08-03 11:38:00,91.8,76.4,29.95,NE,45,2.3,0.0,61,0.00,CLR,,0.00,WeatherDisplay:10.37,2013-08-03 16:38:00,
2013-08-03 11:43:00,91.9,77.1,29.95,NE,45,3.5,3.5,62,0.00,CLR,,0.00,WeatherDisplay:10.37,2013-08-03 16:43:00,
2013-08-03 11:48:00,92.7,79.2,29.95,North,0,3.5,3.5,65,0.00,CLR,,0.00,WeatherDisplay:10.37,2013-08-03 16:48:00,
2013-08-03 11:53:00,93.7,78.3,29.94,SW,225,3.5,3.5,61,0.00,CLR,,0.00,WeatherDisplay:10.37,2013-08-03 16:53:00,
2013-08-03 11:58:00,94.5,76.3,29.95,SW,225,3.5,3.5,56,0.00,CLR,,0.00,WeatherDisplay:10.37,2013-08-03 16:58:00,
2013-08-03 12:03:00,93.6,76.0,29.94,NE,45,2.3,2.3,57,0.00,CLR,,0.00,WeatherDisplay:10.37,2013-08-03 17:03:00,
2013-08-03 12:08:00,94.3,76.2,29.94,SE,135,2.3,2.3,56,0.00,CLR,,0.00,WeatherDisplay:10.37,2013-08-03 17:08:00,
2013-08-03 12:13:00,95.2,74.8,29.94,North,0,1.1,0.0,52,0.00,CLR,,0.00,WeatherDisplay:10.37,2013-08-03 17:13:00,
2013-08-03 12:18:00,96.3,77.5,29.95,NE,45,2.3,2.3,55,0.00,CLR,,0.00,WeatherDisplay:10.37,2013-08-03 17:18:00,
2013-08-03 12:23:00,96.6,76.1,29.94,SW,225,2.3,2.3,52,0.00,CLR,,0.00,WeatherDisplay:10.37,2013-08-03 17:23:00,
2013-08-03 12:28:00,96.6,75.5,29.95,East,90,4.6,4.6,51,0.00,CLR,,0.00,WeatherDisplay:10.37,2013-08-03 17:28:00,
2013-08-03 12:33:00,96.8,74.5,29.94,NE,45,3.5,0.0,49,0.00,CLR,,0.00,WeatherDisplay:10.37,2013-08-03 17:33:00,
2013-08-03 12:38:00,97.2,75.4,29.94,WSW,248,2.3,2.3,50,0.00,CLR,,0.00,WeatherDisplay:10.37,2013-08-03 17:38:00,
2013-08-03 12:43:00,96.8,73.2,29.94,NW,315,1.1,0.0,47,0.00,CLR,,0.00,WeatherDisplay:10.37,2013-08-03 17:43:00,
2013-08-03 12:48:00,95.9,75.4,29.95,NE,45,2.3,2.3,52,0.00,CLR,,0.00,WeatherDisplay:10.37,2013-08-03 17:48:00,
2013-08-03 12:53:00,95.4,74.9,29.94,SW,225,3.5,3.5,52,0.00,CLR,,0.00,WeatherDisplay:10.37,2013-08-03 17:53:00,
2013-08-03 12:58:00,95.7,73.5,29.94,NE,45,2.3,2.3,49,0.00,CLR,,0.00,WeatherDisplay:10.37,2013-08-03 17:58:00,
2013-08-03 13:03:00,96.1,75.0,29.94,East,90,2.3,2.3,51,0.00,CLR,,0.00,WeatherDisplay:10.37,2013-08-03 18:03:00,
2013-08-03 13:08:00,96.6,73.7,29.94,South,180,3.5,3.5,48,0.00,CLR,,0.00,WeatherDisplay:10.37,2013-08-03 18:08:00,
2013-08-03 13:13:00,96.4,74.2,29.94,West,270,2.3,2.3,49,0.00,CLR,,0.00,WeatherDisplay:10.37,2013-08-03 18:13:00,
2013-08-03 13:18:00,96.3,73.4,29.94,SW,225,3.5,3.5,48,0.00,CLR,,0.00,WeatherDisplay:10.37,2013-08-03 18:18:00,
2013-08-03 13:23:00,95.5,72.7,29.94,SW,225,1.1,0.0,48,0.00,CLR,,0.00,WeatherDisplay:10.37,2013-08-03 18:23:00,
2013-08-03 13:28:00,95.2,72.4,29.93,SW,225,2.3,0.0,48,0.00,CLR,,0.00,WeatherDisplay:10.37,2013-08-03 18:28:00,
2013-08-03 13:33:00,96.3,74.0,29.93,NE,45,2.3,2.3,49,0.00,CLR,,0.00,WeatherDisplay:10.37,2013-08-03 18:33:00,
2013-08-03 13:38:00,95.9,74.3,29.93,WNW,292,4.6,4.6,50,0.00,CLR,,0.00,WeatherDisplay:10.37,2013-08-03 18:38:00,
2013-08-03 13:43:00,96.3,72.8,29.93,West,270,1.6,0.0,47,0.00,CLR,,0.00,WeatherDisplay:10.37,2013-08-03 18:43:00,
2013-08-03 13:48:00,96.8,72.6,29.93,SW,225,3.5,3.5,46,0.00,CLR,,0.00,WeatherDisplay:10.37,2013-08-03 18:48:00,
2013-08-03 13:53:00,97.3,73.7,29.93,SW,225,1.1,0.0,47,0.00,CLR,,0.00,WeatherDisplay:10.37,2013-08-03 18:53:00,
2013-08-03 13:58:00,97.5,71.9,29.93,South,180,1.1,0.0,44,0.00,CLR,,0.00,WeatherDisplay:10.37,2013-08-03 18:58:00,
2013-08-03 14:03:00,97.7,72.8,29.92,WSW,248,2.3,2.3,45,0.00,CLR,,0.00,WeatherDisplay:10.37,2013-08-03 19:03:00,
2013-08-03 14:08:00,98.1,72.4,29.92,South,180,2.3,2.3,44,0.00,CLR,,0.00,WeatherDisplay:10.37,2013-08-03 19:08:00,
2013-08-03 14:13:00,98.4,71.4,29.92,SE,135,1.1,0.0,42,0.00,CLR,,0.00,WeatherDisplay:10.37,2013-08-03 19:13:00,
2013-08-03 14:18:00,98.6,71.5,29.92,NE,45,3.5,3.5,42,0.00,CLR,,0.00,WeatherDisplay:10.37,2013-08-03 19:18:00,
2013-08-03 14:23:00,99.7,72.5,29.92,SE,135,2.3,0.0,42,0.00,CLR,,0.00,WeatherDisplay:10.37,2013-08-03 19:23:00,
2013-08-03 14:28:00,99.7,72.5,29.92,South,180,1.1,0.0,42,0.00,CLR,,0.00,WeatherDisplay:10.37,2013-08-03 19:28:00,
2013-08-03 14:33:00,99.5,72.3,29.92,West,270,3.5,0.0,42,0.00,CLR,,0.00,WeatherDisplay:10.37,2013-08-03 19:33:00,
2013-08-03 14:38:00,99.3,72.2,29.92,SW,225,1.1,1.6,42,0.00,CLR,,0.00,WeatherDisplay:10.37,2013-08-03 19:38:00,
2013-08-03 14:43:00,99.7,69.6,29.92,West,270,3.5,3.5,38,0.00,CLR,,0.00,WeatherDisplay:10.37,2013-08-03 19:43:00,
2013-08-03 14:48:00,99.7,71.8,29.92,West,270,3.5,3.5,41,0.00,CLR,,0.00,WeatherDisplay:10.37,2013-08-03 19:48:00,
2013-08-03 14:53:00,99.9,71.9,29.92,West,270,3.5,3.5,41,0.00,CLR,,0.00,WeatherDisplay:10.37,2013-08-03 19:53:00,
2013-08-03 14:58:00,99.9,70.5,29.92,NW,315,3.5,3.5,39,0.00,CLR,,0.00,WeatherDisplay:10.37,2013-08-03 19:58:00,
2013-08-03 15:03:00,99.7,68.8,29.91,East,90,2.3,0.0,37,0.00,CLR,,0.00,WeatherDisplay:10.37,2013-08-03 20:03:00,
2013-08-03 15:08:00,99.3,72.9,29.91,NW,315,1.1,0.0,43,0.00,CLR,,0.00,WeatherDisplay:10.37,2013-08-03 20:08:00,
2013-08-03 15:13:00,99.1,70.6,29.91,North,0,2.3,2.3,40,0.00,CLR,,0.00,WeatherDisplay:10.37,2013-08-03 20:13:00,
2013-08-03 15:18:00,98.6,72.2,29.91,North,0,2.3,2.3,43,0.00,CLR,,0.00,WeatherDisplay:10.37,2013-08-03 20:18:00,
2013-08-03 15:23:00,97.9,70.2,29.91,West,270,1.1,1.1,41,0.00,CLR,,0.00,WeatherDisplay:10.37,2013-08-03 20:23:00,
2013-08-03 15:28:00,97.7,71.4,29.91,West,270,2.3,2.3,43,0.00,CLR,,0.00,WeatherDisplay:10.37,2013-08-03 20:28:00,
2013-08-03 15:33:00,97.0,73.4,29.91,West,270,1.1,0.0,47,0.00,CLR,,0.00,WeatherDisplay:10.37,2013-08-03 20:33:00,
2013-08-03 15:38:00,96.6,71.1,29.90,West,270,2.3,2.3,44,0.00,CLR,,0.00,WeatherDisplay:10.37,2013-08-03 20:38:00,
2013-08-03 15:43:00,96.4,74.2,29.90,NW,315,2.3,2.3,49,0.00,CLR,,0.00,WeatherDisplay:10.37,2013-08-03 20:43:00,
2013-08-03 15:48:00,96.6,71.8,29.89,West,270,3.5,3.5,45,0.00,CLR,,0.00,WeatherDisplay:10.37,2013-08-03 20:48:00,
2013-08-03 15:53:00,96.3,70.1,29.90,West,270,2.3,2.3,43,0.00,CLR,,0.00,WeatherDisplay:10.37,2013-08-03 20:53:00,
2013-08-03 15:58:00,96.1,72.0,29.90,SW,225,1.1,1.1,46,0.00,CLR,,0.00,WeatherDisplay:10.37,2013-08-03 20:58:00,
2013-08-03 16:03:00,96.1,75.0,29.89,West,270,1.1,1.1,51,0.00,CLR,,0.00,WeatherDisplay:10.37,2013-08-03 21:03:00,
2013-08-03 16:08:00,95.7,71.0,29.89,SW,225,1.1,0.0,45,0.00,CLR,,0.00,WeatherDisplay:10.37,2013-08-03 21:08:00,
2013-08-03 16:13:00,95.9,71.8,29.89,South,180,1.1,0.0,46,0.00,CLR,,0.00,WeatherDisplay:10.37,2013-08-03 21:13:00,
2013-08-03 16:18:00,95.9,71.1,29.89,NW,315,1.1,1.1,45,0.00,CLR,,0.00,WeatherDisplay:10.37,2013-08-03 21:18:00,
2013-08-03 16:23:00,95.9,71.1,29.88,NW,315,1.1,0.0,45,0.00,CLR,,0.00,WeatherDisplay:10.37,2013-08-03 21:23:00,
2013-08-03 16:28:00,95.9,73.1,29.88,West,270,1.1,0.0,48,0.00,CLR,,0.00,WeatherDisplay:10.37,2013-08-03 21:28:00,
2013-08-03 16:33:00,95.7,74.1,29.88,SW,225,1.1,1.1,50,0.00,CLR,,0.00,WeatherDisplay:10.37,2013-08-03 21:33:00,
2013-08-03 16:38:00,95.4,73.8,29.88,West,270,2.3,2.3,50,0.00,CLR,,0.00,WeatherDisplay:10.37,2013-08-03 21:38:00,
2013-08-03 16:43:00,95.4,75.5,29.88,West,270,1.1,1.1,53,0.00,CLR,,0.00,WeatherDisplay:10.37,2013-08-03 21:43:00,
2013-08-03 16:48:00,95.2,76.5,29.88,SW,225,1.1,1.1,55,0.00,CLR,,0.00,WeatherDisplay:10.37,2013-08-03 21:48:00,
2013-08-03 16:53:00,95.2,75.9,29.89,West,270,1.1,0.0,54,0.00,CLR,,0.00,WeatherDisplay:10.37,2013-08-03 21:53:00,
2013-08-03 16:58:00,95.0,77.4,29.88,West,270,1.1,0.0,57,0.00,CLR,,0.00,WeatherDisplay:10.37,2013-08-03 21:58:00,
2013-08-03 17:03:00,95.0,77.4,29.89,West,270,1.1,0.0,57,0.00,CLR,,0.00,WeatherDisplay:10.37,2013-08-03 22:03:00,
2013-08-03 17:08:00,94.8,77.2,29.89,West,270,1.1,1.1,57,0.00,CLR,,0.00,WeatherDisplay:10.37,2013-08-03 22:08:00,
2013-08-03 17:13:00,94.6,77.0,29.89,NE,45,1.6,1.6,57,0.00,CLR,,0.00,WeatherDisplay:10.37,2013-08-03 22:13:00,
2013-08-03 17:18:00,94.3,77.7,29.89,SW,225,2.3,2.3,59,0.00,CLR,,0.00,WeatherDisplay:10.37,2013-08-03 22:18:00,
2013-08-03 17:23:00,93.4,76.4,29.89,West,270,1.1,0.0,58,0.00,CLR,,0.00,WeatherDisplay:10.37,2013-08-03 22:23:00,
2013-08-03 17:28:00,93.0,76.6,29.90,NW,315,1.1,0.0,59,0.00,CLR,,0.00,WeatherDisplay:10.37,2013-08-03 22:28:00,
2013-08-03 17:33:00,92.3,76.9,29.89,SW,225,1.1,1.1,61,0.00,CLR,,0.00,WeatherDisplay:10.37,2013-08-03 22:33:00,
2013-08-03 17:38:00,91.8,76.9,29.89,SE,135,1.1,0.0,62,0.00,CLR,,0.00,WeatherDisplay:10.37,2013-08-03 22:38:00,
2013-08-03 17:43:00,91.2,76.9,29.89,South,180,3.5,0.0,63,0.00,CLR,,0.00,WeatherDisplay:10.37,2013-08-03 22:43:00,
2013-08-03 17:48:00,91.0,77.2,29.89,NW,315,1.1,1.6,64,0.00,CLR,,0.00,WeatherDisplay:10.37,2013-08-03 22:48:00,
2013-08-03 17:53:00,90.9,77.5,29.89,SW,225,1.1,0.0,65,0.00,CLR,,0.00,WeatherDisplay:10.37,2013-08-03 22:53:00,
2013-08-03 17:58:00,90.7,76.8,29.89,South,180,0.0,0.0,64,0.00,CLR,,0.00,WeatherDisplay:10.37,2013-08-03 22:58:00,
2013-08-03 18:03:00,90.9,77.5,29.88,NE,45,1.1,0.0,65,0.00,CLR,,0.00,WeatherDisplay:10.37,2013-08-03 23:03:00,
2013-08-03 18:08:00,90.7,77.8,29.88,North,0,1.1,0.0,66,0.00,CLR,,0.00,WeatherDisplay:10.37,2013-08-03 23:08:00,
2013-08-03 18:13:00,90.5,77.6,29.88,West,270,1.1,0.0,66,0.00,CLR,,0.00,WeatherDisplay:10.37,2013-08-03 23:13:00,
2013-08-03 18:18:00,90.1,77.2,29.88,East,90,1.1,0.0,66,0.00,CLR,,0.00,WeatherDisplay:10.37,2013-08-03 23:18:00,
2013-08-03 18:23:00,89.8,76.9,29.89,West,270,1.1,0.0,66,0.00,CLR,,0.00,WeatherDisplay:10.37,2013-08-03 23:23:00,
2013-08-03 18:28:00,90.3,77.4,29.89,West,270,0.7,0.0,66,0.00,CLR,,0.00,WeatherDisplay:10.37,2013-08-03 23:28:00,
2013-08-03 18:33:00,90.3,77.9,29.89,East,90,1.1,0.0,67,0.00,CLR,,0.00,WeatherDisplay:10.37,2013-08-03 23:33:00,
2013-08-03 18:38:00,90.5,78.0,29.89,West,270,1.1,0.0,67,0.00,CLR,,0.00,WeatherDisplay:10.37,2013-08-03 23:38:00,
2013-08-03 18:43:00,90.5,78.5,29.89,SW,225,1.1,0.0,68,0.00,CLR,,0.00,WeatherDisplay:10.37,2013-08-03 23:43:00,
2013-08-03 18:48:00,90.5,78.0,29.89,East,90,1.1,0.0,67,0.00,CLR,,0.00,WeatherDisplay:10.37,2013-08-03 23:48:00,
2013-08-03 18:53:00,90.5,78.5,29.89,East,90,1.1,0.0,68,0.00,CLR,,0.00,WeatherDisplay:10.37,2013-08-03 23:53:00,
2013-08-03 18:58:00,90.3,78.3,29.89,NW,315,1.1,0.0,68,0.00,CLR,,0.00,WeatherDisplay:10.37,2013-08-03 23:58:00,
2013-08-03 19:03:00,90.3,77.9,29.89,North,0,1.1,0.0,67,0.00,CLR,,0.00,WeatherDisplay:10.37,2013-08-04 00:03:00,
2013-08-03 19:08:00,90.0,78.0,29.89,North,0,1.1,0.0,68,0.00,CLR,,0.00,WeatherDisplay:10.37,2013-08-04 00:08:00,
2013-08-03 19:13:00,89.8,77.8,29.89,North,0,1.1,0.0,68,0.00,CLR,,0.00,WeatherDisplay:10.37,2013-08-04 00:13:00,
2013-08-03 19:18:00,89.6,77.6,29.89,South,180,1.1,0.0,68,0.00,CLR,,0.00,WeatherDisplay:10.37,2013-08-04 00:18:00,
2013-08-03 19:23:00,89.2,77.7,29.89,West,270,1.1,0.0,69,0.00,CLR,,0.00,WeatherDisplay:10.37,2013-08-04 00:23:00,
2013-08-03 19:28:00,88.5,77.5,29.89,West,270,1.1,1.1,70,0.00,CLR,,0.00,WeatherDisplay:10.37,2013-08-04 00:28:00,
2013-08-03 19:33:00,88.2,77.1,29.89,West,270,1.1,0.0,70,0.00,CLR,,0.00,WeatherDisplay:10.37,2013-08-04 00:33:00,
2013-08-03 19:38:00,87.8,76.8,29.90,West,270,0.0,0.0,70,0.00,CLR,,0.00,WeatherDisplay:10.37,2013-08-04 00:38:00,
2013-08-03 19:43:00,87.6,77.0,29.90,West,270,0.0,0.0,71,0.00,CLR,,0.00,WeatherDisplay:10.37,2013-08-04 00:43:00,
2013-08-03 19:48:00,87.4,76.9,29.90,West,270,0.0,0.0,71,0.00,CLR,,0.00,WeatherDisplay:10.37,2013-08-04 00:48:00,
2013-08-03 19:53:00,86.9,76.8,29.90,West,270,0.0,0.0,72,0.00,CLR,,0.00,WeatherDisplay:10.37,2013-08-04 00:53:00,
2013-08-03 19:58:00,86.5,76.4,29.90,West,270,0.0,0.0,72,0.00,CLR,,0.00,WeatherDisplay:10.37,2013-08-04 00:58:00,
2013-08-03 20:03:00,86.2,76.5,29.90,West,270,0.0,0.0,73,0.00,CLR,,0.00,WeatherDisplay:10.37,2013-08-04 01:03:00,
2013-08-03 20:08:00,85.8,76.6,29.90,West,270,0.0,0.0,74,0.00,CLR,,0.00,WeatherDisplay:10.37,2013-08-04 01:08:00,
2013-08-03 20:13:00,85.3,76.0,29.90,West,270,1.1,0.0,74,0.00,CLR,,0.00,WeatherDisplay:10.37,2013-08-04 01:13:00,
2013-08-03 20:18:00,85.1,76.3,29.90,West,270,0.0,0.0,75,0.00,CLR,,0.00,WeatherDisplay:10.37,2013-08-04 01:18:00,
2013-08-03 20:23:00,84.6,75.8,29.90,West,270,0.0,0.0,75,0.00,CLR,,0.00,WeatherDisplay:10.37,2013-08-04 01:23:00,
2013-08-03 20:28:00,84.4,76.0,29.90,West,270,0.0,0.0,76,0.00,CLR,,0.00,WeatherDisplay:10.37,2013-08-04 01:28:00,
2013-08-03 20:33:00,84.2,76.2,29.90,West,270,1.1,0.0,77,0.00,CLR,,0.00,WeatherDisplay:10.37,2013-08-04 01:33:00,
2013-08-03 20:38:00,84.0,76.0,29.91,West,270,0.0,0.0,77,0.00,CLR,,0.00,WeatherDisplay:10.37,2013-08-04 01:38:00,
2013-08-03 20:43:00,83.8,76.2,29.91,West,270,0.0,0.0,78,0.00,CLR,,0.00,WeatherDisplay:10.37,2013-08-04 01:43:00,
2013-08-03 20:48:00,83.7,76.1,29.91,West,270,0.0,0.0,78,0.00,CLR,,0.00,WeatherDisplay:10.37,2013-08-04 01:48:00,
2013-08-03 20:53:00,83.5,76.3,29.91,West,270,0.0,0.0,79,0.00,CLR,,0.00,WeatherDisplay:10.37,2013-08-04 01:53:00,
2013-08-03 20:58:00,83.1,75.9,29.92,West,270,0.0,0.0,79,0.00,CLR,,0.00,WeatherDisplay:10.37,2013-08-04 01:58:00,
2013-08-03 21:03:00,83.1,75.9,29.92,West,270,0.0,0.0,79,0.00,CLR,,0.00,WeatherDisplay:10.37,2013-08-04 02:03:00,
2013-08-03 21:08:00,82.9,76.1,29.92,West,270,0.0,0.0,80,0.00,CLR,,0.00,WeatherDisplay:10.37,2013-08-04 02:08:00,
2013-08-03 21:13:00,82.8,76.0,29.92,West,270,1.1,0.0,80,0.00,CLR,,0.00,WeatherDisplay:10.37,2013-08-04 02:13:00,
2013-08-03 21:18:00,82.6,76.2,29.92,West,270,0.0,0.0,81,0.00,CLR,,0.00,WeatherDisplay:10.37,2013-08-04 02:18:00,
2013-08-03 21:23:00,82.4,76.0,29.92,West,270,0.0,0.0,81,0.00,CLR,,0.00,WeatherDisplay:10.37,2013-08-04 02:23:00,
2013-08-03 21:28:00,82.2,76.2,29.92,West,270,0.0,0.0,82,0.00,CLR,,0.00,WeatherDisplay:10.37,2013-08-04 02:28:00,
2013-08-03 21:33:00,82.0,76.0,29.92,West,270,0.0,0.0,82,0.00,CLR,,0.00,WeatherDisplay:10.37,2013-08-04 02:33:00,
2013-08-03 21:38:00,82.0,76.4,29.92,West,270,0.0,0.0,83,0.00,CLR,,0.00,WeatherDisplay:10.37,2013-08-04 02:38:00,
2013-08-03 21:43:00,81.9,76.2,29.92,West,270,0.0,0.0,83,0.00,CLR,,0.00,WeatherDisplay:10.37,2013-08-04 02:43:00,
2013-08-03 21:48:00,81.9,76.2,29.92,West,270,1.1,0.0,83,0.00,CLR,,0.00,WeatherDisplay:10.37,2013-08-04 02:48:00,
2013-08-03 21:53:00,81.7,76.4,29.93,West,270,1.1,0.0,84,0.00,CLR,,0.00,WeatherDisplay:10.37,2013-08-04 02:53:00,
2013-08-03 21:58:00,81.5,76.2,29.92,West,270,0.0,0.0,84,0.00,CLR,,0.00,WeatherDisplay:10.37,2013-08-04 02:58:00,
2013-08-03 22:03:00,81.5,76.6,29.93,West,270,0.0,0.0,85,0.00,CLR,,0.00,WeatherDisplay:10.37,2013-08-04 03:03:00,
2013-08-03 22:08:00,81.3,76.4,29.93,West,270,0.0,0.0,85,0.00,CLR,,0.00,WeatherDisplay:10.37,2013-08-04 03:08:00,
2013-08-03 22:13:00,81.3,76.4,29.93,West,270,0.0,0.0,85,0.00,CLR,,0.00,WeatherDisplay:10.37,2013-08-04 03:13:00,
2013-08-03 22:18:00,81.1,76.6,29.93,West,270,0.0,0.0,86,0.00,CLR,,0.00,WeatherDisplay:10.37,2013-08-04 03:18:00,
2013-08-03 22:23:00,81.1,76.6,29.93,West,270,0.0,0.0,86,0.00,CLR,,0.00,WeatherDisplay:10.37,2013-08-04 03:23:00,
2013-08-03 22:28:00,81.1,76.6,29.93,West,270,0.0,0.0,86,0.00,CLR,,0.00,WeatherDisplay:10.37,2013-08-04 03:28:00,
2013-08-03 22:33:00,81.0,76.7,29.93,West,270,0.0,0.0,87,0.00,CLR,,0.00,WeatherDisplay:10.37,2013-08-04 03:33:00,
2013-08-03 22:38:00,80.8,76.5,29.93,West,270,0.0,0.0,87,0.00,CLR,,0.00,WeatherDisplay:10.37,2013-08-04 03:38:00,
2013-08-03 22:43:00,80.8,76.5,29.93,West,270,0.0,0.0,87,0.00,CLR,,0.00,WeatherDisplay:10.37,2013-08-04 03:43:00,
2013-08-03 22:48:00,80.8,76.5,29.93,West,270,0.0,0.0,87,0.00,CLR,,0.00,WeatherDisplay:10.37,2013-08-04 03:48:00,
2013-08-03 22:53:00,80.6,76.7,29.94,West,270,0.0,0.0,88,0.00,CLR,,0.00,WeatherDisplay:10.37,2013-08-04 03:53:00,
2013-08-03 22:58:00,80.6,76.7,29.94,West,270,0.0,0.0,88,0.00,CLR,,0.00,WeatherDisplay:10.37,2013-08-04 03:58:00,
2013-08-03 23:01:00,80.4,76.5,29.93,West,270,0.0,0.0,88,0.00,CLR,,0.00,WeatherDisplay:10.37,2013-08-04 04:01:00,
2013-08-03 23:02:00,80.4,76.5,29.94,West,270,0.0,0.0,88,0.00,CLR,,0.00,WeatherDisplay:10.37,2013-08-04 04:02:00,
2013-08-03 23:03:00,80.4,76.5,29.94,West,270,0.0,0.0,88,0.00,CLR,,0.00,WeatherDisplay:10.37,2013-08-04 04:03:00,
2013-08-03 23:08:00,80.4,76.9,29.94,West,270,0.0,0.0,89,0.00,CLR,,0.00,WeatherDisplay:10.37,2013-08-04 04:08:00,
2013-08-03 23:13:00,80.4,76.9,29.94,West,270,0.0,0.0,89,0.00,CLR,,0.00,WeatherDisplay:10.37,2013-08-04 04:13:00,
2013-08-03 23:18:00,80.4,76.9,29.94,West,270,0.0,0.0,89,0.00,CLR,,0.00,WeatherDisplay:10.37,2013-08-04 04:18:00,
2013-08-03 23:23:00,80.4,76.9,29.94,West,270,0.0,0.0,89,0.00,CLR,,0.00,WeatherDisplay:10.37,2013-08-04 04:23:00,
2013-08-03 23:28:00,80.2,76.7,29.94,West,270,0.0,0.0,89,0.00,CLR,,0.00,WeatherDisplay:10.37,2013-08-04 04:28:00,
2013-08-03 23:33:00,80.2,76.7,29.94,West,270,0.0,0.0,89,0.00,CLR,,0.00,WeatherDisplay:10.37,2013-08-04 04:33:00,
2013-08-03 23:38:00,80.2,76.7,29.95,West,270,0.0,0.0,89,0.00,CLR,,0.00,WeatherDisplay:10.37,2013-08-04 04:38:00,
2013-08-03 23:43:00,80.1,76.9,29.94,West,270,0.0,0.0,90,0.00,CLR,,0.00,WeatherDisplay:10.37,2013-08-04 04:43:00,
2013-08-03 23:48:00,80.1,76.9,29.94,West,270,0.0,0.0,90,0.00,CLR,,0.00,WeatherDisplay:10.37,2013-08-04 04:48:00,
2013-08-03 23:53:00,80.1,76.9,29.94,West,270,0.0,0.0,90,0.00,CLR,,0.00,WeatherDisplay:10.37,2013-08-04 04:53:00,
2013-08-03 23:58:00,79.9,76.7,29.94,West,270,0.0,0.0,90,0.00,CLR,,0.00,WeatherDisplay:10.37,2013-08-04 04:58:00,